{"data":{"norad_id":65205,"epoch":"2026-05-24T18:08:03.802848Z","epoch_age_seconds":89987,"freshness":"FRESH","line1":"1 65205U 25176H   26144.75559957  .00014525  00000+0  44023-3 0  9990","line2":"2 65205  53.1598 158.9038 0001327  84.9856 275.1298 15.34396082 44775","mean_motion":15.34396082,"eccentricity":0.0001327,"inclination_deg":53.1598,"raan_deg":158.9038,"arg_perigee_deg":84.9856,"mean_anomaly_deg":275.1298,"bstar":0.00044023,"rev_number":4477,"period_min":93.847997716668,"perigee_km":461.80710430838,"apogee_km":463.62266639875,"semimajor_km":6840.8518853536,"source":"CELESTRAK","updated_at":"2026-05-25T13:38:20.718933Z"}}